Location: Fremont
(37.5480°N, 121.9880°W)
Time: 12:32:52
(UTC-07:00)

Daily predictions for brighter satellites

Satellite Brightness Start Highest point End
(mag) Time Altitude Azimuth Time Altitude Azimuth Time Altitude Azimuth
BREEZE-M DEB (TANK) 3.5 20:31:59 10° NW 20:35:35 90° NNE 20:48:21 10° SE
Cosmos 2251 Rocket 3.8 20:38:03 10° S 20:43:07 48° ESE 20:48:14 10° NNE
Cosmos 1812 4.0 20:42:03 10° SSW 20:45:46 46° W 20:49:29 10° N
FENGYUN 3A 3.7 20:40:54 10° SSE 20:46:13 70° ENE 20:51:35 10° N
Cosmos 1315 Rocket 4.3 20:45:16 10° NNW 20:49:08 40° W 20:52:57 10° SSW
IUS-17 SRM-1 4.3 20:49:18 10° SW 20:51:53 26° SSE 20:58:10 10° ESE
ALOS 2.3 20:48:10 10° SSE 20:52:50 86° ENE 20:57:32 10° N
BREEZE-M R/B 4.0 20:51:15 10° WNW 20:54:01 33° SW 20:58:37 10° SSE
Atlas Centaur 2 3.9 20:48:26 10° SSW 20:54:28 26° SSE 21:01:04 10° E
Cosmos 1939 Rocket 4.0 20:55:47 10° SE 20:59:23 29° ENE 21:02:59 10° N
COSMOS 2455 4.4 20:57:19 10° SE 21:00:08 14° ESE 21:02:58 10° ENE
Cosmos 2237 Rocket 2.8 20:54:58 10° SSW 21:00:32 63° WNW 21:06:08 10° NNE
Envisat 4.0 20:57:17 10° SE 21:01:37 29° ENE 21:05:59 10° N
ERS-1 Rocket 3.1 20:58:01 10° SSE 21:02:56 60° ENE 21:07:52 10° N
CZ-2D R/B 4.1 20:59:40 10° S 21:03:28 53° W 21:07:18 10° NNW
Cosmos 1110 Rocket 4.4 20:58:46 10° N 21:03:56 51° ENE 21:08:59 10° SE
Cosmos 2285 Rocket 4.5 21:02:53 10° N 21:08:56 46° ENE 21:14:33 12° SE
Cosmos 1726 Rocket 3.7 21:05:02 10° N 21:09:27 61° E 21:13:49 10° SSE
Cosmos 2278 Rocket 2.4 21:04:17 10° NNW 21:09:57 75° WSW 21:15:36 10° SSE
SL-24 R/B - RUBIN 2 4.2 21:06:02 10° SSW 21:11:18 88° WNW 21:17:21 10° NNE
YAOGAN 11 4.3 21:07:54 10° S 21:12:16 74° WSW 21:16:37 10° NNW
Lacrosse 5 rocket 1.9 21:10:04 10° SW 21:13:49 58° NW 21:17:48 10° NE
GEOS 3 Rocket 4.3 21:09:19 10° SSE 21:14:27 52° WSW 21:19:34 10° NW
Cosmos 2233 Rocket 4.3 21:10:39 10° NNW 21:16:52 69° W 21:23:00 10° S
Cosmos 2058 Rocket 3.2 21:13:47 10° N 21:18:06 57° E 21:22:04 12° SSE
Abrixas rocket 4.1 21:15:54 10° NW 21:18:50 25° NNE 21:21:46 10° E
USA 234 4.0 21:15:11 10° ESE 21:21:21 45° NE 21:27:32 10° NW
Aureole 2 Rocket 3.1 21:17:50 10° S 21:21:41 40° ESE 21:25:14 10° NE
Cosmos 1666 3.5 21:18:20 10° NNE 21:21:56 35° ENE 21:24:20 18° SE
Cosmos 1500 4.5 21:19:24 10° NNW 21:23:05 42° W 21:26:45 10° SSW
OAO 3 Copernicus 4.3 21:18:18 10° W 21:23:19 66° S 21:27:34 14° ESE
Cosmos 1464 Rocket 4.0 21:18:04 10° N 21:24:08 61° E 21:29:56 11° SSE
Cosmos 2369 Rocket 4.5 21:23:15 10° NE 21:24:08 10° NE 21:25:01 10° ENE
Okean 2 3.4 21:20:35 10° S 21:24:44 69° E 21:28:54 10° NNE
Cosmos 1602 Rocket 4.3 21:22:08 14° SSE 21:25:30 34° E 21:29:33 10° NNE
deb Chang Zheng 4 3.7 21:21:42 10° N 21:26:08 79° WNW 21:30:29 10° SSW
SL-16 R/B 2.2 21:21:11 10° SSW 21:26:50 87° WNW 21:32:32 10° NNE
Cosmos 1072 Rocket 4.5 21:23:56 10° N 21:30:13 76° E 21:36:33 10° S
Cosmos 1743 3.2 21:27:31 10° NNW 21:31:19 61° W 21:35:05 10° S
Meteor 1-23 Rocket 4.3 21:30:44 10° S 21:36:21 85° W 21:42:05 10° N
Cosmos 1461 4.3 21:34:24 10° N 21:38:04 26° NE 21:40:09 18° E
CZ-2C R/B 2.8 21:36:18 10° SSW 21:38:13 22° W 21:40:08 10° NW
Cosmos 494 Rocket 4.1 21:33:21 10° SSW 21:38:28 79° WNW 21:43:36 10° NNE
PSLV R/B 3.8 21:36:00 10° SW 21:39:17 38° SSE 21:40:53 24° E
SPOT 1/Viking Rocket 4.4 21:38:24 20° ESE 21:41:11 33° ENE 21:45:47 10° N
Cosmos 2034 Rocket 4.1 21:35:06 10° N 21:41:26 63° E 21:46:17 18° SSE
UNK 4.3 21:36:33 10° NNE 21:41:52 57° ESE 21:47:25 10° S
H-2A R/B 2.9 21:45:35 11° S 21:49:31 47° W 21:53:41 10° NNW
MetOp-B 4.2 21:51:23 24° SSE 21:54:38 64° ENE 21:59:56 10° N
Cosmos 1603 3.7 21:50:01 10° S 21:55:32 61° ESE 22:01:04 10° NNE
CZ-4 R/B 4.4 21:51:03 10° NNE 21:55:43 40° E 21:57:41 28° SE
CZ-4 SHROUD 3.4 21:55:05 31° S 21:56:24 70° W 21:59:33 10° NNW
Geosat 4.4 21:53:19 10° NE 21:58:01 39° ESE 22:00:05 27° SSE
Cosmos 1626 Rocket 3.5 21:55:59 17° S 21:59:22 85° E 22:03:49 10° N
SPOT 5 2.6 21:56:47 24° S 21:59:29 84° WSW 22:03:52 10° NNW
Meteor 2-9 Rocket 4.5 21:56:59 10° NNW 22:02:38 70° W 22:07:10 17° S
Cosmos 1302 Rocket 4.0 22:04:07 10° NNW 22:09:22 79° WSW 22:12:06 29° S
SeaSat 1 2.9 22:12:45 26° S 22:15:23 55° WSW 22:20:14 10° NW
APEX 3.8 22:12:21 10° NNW 22:16:28 70° WSW 22:18:35 34° S
Cosmos 2228 4.1 22:14:51 10° NNW 22:19:00 42° W 22:21:46 19° SSW
CZ-4B R/B 3.6 22:15:06 10° N 22:20:09 78° WNW 22:24:15 17° SSW
Cosmos 1943 3.6 22:21:12 37° SE 22:22:09 40° ESE 22:27:26 10° NE
YAOGAN 6 2.6 22:22:00 59° S 22:22:39 84° W 22:26:24 10° NNW
Meteor 2-12 Rocket 4.4 22:18:05 10° N 22:24:11 75° E 22:26:47 36° SSE
BREEZE-M DEB (TANK) 3.9 22:26:01 10° WSW 22:29:32 32° NW 22:31:00 16° NNE
CZ-4C R/B 3.7 22:29:37 52° ESE 22:30:06 55° ENE 22:34:12 10° N
Terra 2.7 22:30:52 32° E 22:31:27 33° ENE 22:35:42 10° N
SL-08 RB Rocket 3.6 22:39:27 62° SSE 22:40:12 83° ENE 22:44:47 10° N
Cosmos 1943 Rocket 4.1 22:37:19 10° NNE 22:40:46 16° NE 22:42:31 14° ENE
IGS 5A 4.4 22:42:30 34° ENE 22:42:30 34° ENE 22:46:02 10° N
Atlas Centaur 2 3.3 22:35:50 10° WSW 22:43:30 46° SSE 22:46:01 37° SE
Cosmos 407 Rocket 3.9 22:45:24 44° E 22:45:24 44° E 22:50:08 10° NNE
COSMOS 2455 2.9 22:39:16 10° SSW 22:45:15 80° WNW 22:51:19 10° NNE
USA 81 4.0 22:42:54 10° N 22:48:13 89° W 22:49:27 55° S
Milstar 3 Cent rocket 4.1 22:46:36 10° WSW 22:48:41 14° SW 22:48:41 14° SW
Cosmos 1758 Rocket 3.9 22:50:23 52° ENE 22:50:23 52° ENE 22:54:12 10° NNE
Cosmos 1953 4.4 22:51:05 10° NNE 22:52:49 17° NE 22:52:49 17° NE
CARTOSAT-1 3.7 22:54:54 59° ENE 22:54:54 59° ENE 22:58:59 10° N
SAR-Lupe-2 4.4 22:55:47 46° NNE 22:55:47 46° NNE 22:58:30 10° N
ATLAS 3B R/B 2.9 22:52:19 33° S 22:55:59 64° ESE 23:03:29 10° NE
Abrixas rocket 3.9 22:52:46 10° WNW 22:54:50 32° W 22:54:50 32° W
Lacrosse 4 Rocket 3.1 23:03:16 23° NE 23:03:16 23° NE 23:04:56 10° NE
USA 234 3.6 23:02:32 42° S 23:04:14 51° SW 23:10:37 10° NW
Cosmos 1825 Rocket 4.3 23:08:13 44° WSW 23:08:54 49° W 23:13:13 10° N
Cosmos 2369 Rocket 2.1 23:03:32 10° NNW 23:09:13 71° ENE 23:09:48 65° ESE
SL-24 R/B 4.3 23:06:40 10° N 23:11:35 86° E 23:11:47 82° SSE
H-2A R/B 1.8 23:11:45 84° S 23:11:56 88° WSW 23:16:57 10° NNW
ARGOS 4.0 23:11:14 35° SW 23:12:39 42° W 23:17:48 10° NNW
Meteor 1-22 Rocket 4.2 23:13:40 10° NNW 23:19:13 75° W 23:19:55 66° SSW
Cosmos 1346 Rocket 3.8 23:21:11 43° NW 23:21:11 43° NW 23:24:22 10° N
Cosmos 1992 Rocket 4.3 23:18:30 10° NNW 23:23:35 54° WSW 23:23:49 54° WSW
COSMOS 2406 4.4 23:26:15 28° ENE 23:26:15 28° ENE 23:29:41 10° NE
USA 238 DEB 4.3 23:26:50 40° E 23:26:50 40° E 23:32:28 10° NE
USA 238 4.3 23:26:58 39° E 23:26:58 39° E 23:32:32 10° NE
Nadezhda 4 Rocket 4.2 23:26:47 53° E 23:26:55 53° E 23:33:03 10° NNE
DMSP B5D2-2 4.2 23:22:57 10° N 23:28:13 68° WNW 23:28:51 61° WSW
Cosmos 2263 4.1 23:22:54 10° NNW 23:28:32 73° ENE 23:28:39 73° E
Cosmos 676 Rocket 4.4 23:51:59 57° W 23:52:11 57° WNW 23:57:28 10° N
